Home   Weather   Shreveport   Past weeks
Flag for USA

Past Weather in Shreveport, Louisiana, USA — Yesterday and Last 2 Weeks

Now
92 °F

Passing clouds.


Feels Like: 103 °F
Forecast: 93 / 77 °F
Wind: 8 mph from Southwest

Location: Shreveport Regional Airport

Current Time: Jul 16, 2019 at 7:37:20 pm

Latest Report: Jul 16, 2019 at 6:56 pm


Visibility: 10 mi

Pressure: 29.93 "Hg

Humidity: 58%

Dew Point: 75 °F

Location of ShreveportLocation

Past Weather in Shreveport — Graph

°F

Shreveport Temperature Yesterday

Maximum temperature yesterday: 90 °F (at 4:56 pm)
Minimum temperature yesterday: 73 °F (at 3:32 am)
Average temperature yesterday: 78 °F

High & Low Weather Summary for the Past Weeks

 TemperatureHumidityPressure
High94 °F (Jul 8, 2:56 pm)100% (Jul 3, 4:56 am)30.11 "Hg (Jul 3, 4:56 am)
Low71 °F (Jul 14, 4:56 am)52% (Jul 5, 4:56 pm)29.75 "Hg (Jul 14, 2:56 am)
Average82 °F79%29.92 "Hg
* Reported Jul 1 5:56 pm — Jul 16 5:56 pm, Shreveport. Weather by CustomWeather, © 2019

Note: Actual official high and low records may vary slightly from our data, if they occured in-between our weather recording intervals... More about our weather records

Advertising

Shreveport Weather History for the Previous 24 Hours

Scroll right to see more
 ConditionsComfort  
Time TempWeatherWind HumidityBarometerVisibility
5:56 pm
Tue, Jul 16
93 °FPassing clouds.12 mph54%29.93 "Hg10 mi
4:56 pm93 °FPassing clouds.14 mph56%29.94 "Hg10 mi
3:56 pm94 °FPassing clouds.13 mph54%29.96 "Hg10 mi
2:56 pm92 °FPassing clouds.12 mph60%29.98 "Hg10 mi
1:56 pm93 °FPassing clouds.12 mph58%29.99 "Hg10 mi
12:56 pm90 °FScattered clouds.15 mph61%30.00 "Hg7 mi
11:56 am89 °FBroken clouds.17 mph63%30.01 "Hg10 mi
10:56 am88 °FBroken clouds.13 mph67%29.99 "Hg10 mi
10:10 am86 °FBroken clouds.14 mph72%30.00 "Hg10 mi
9:56 am85 °FBroken clouds.16 mph77%29.98 "Hg10 mi
9:26 am83 °FBroken clouds.14 mph79%30.00 "Hg10 mi
8:56 am81 °FPartly sunny.13 mph85%29.99 "Hg10 mi
7:56 am80 °FOvercast.9 mph87%29.98 "Hg10 mi
7:12 am79 °FOvercast.8 mph90%29.98 "Hg10 mi
6:56 am79 °FMostly cloudy.12 mph90%29.97 "Hg10 mi
5:56 am79 °FPassing clouds.9 mph90%29.93 "Hg10 mi
5:19 am79 °FPassing clouds.8 mph94%29.94 "Hg10 mi
5:09 am79 °FPassing clouds.9 mph94%29.94 "Hg10 mi
4:56 am79 °FPartly cloudy.10 mph94%29.93 "Hg10 mi
4:18 am80 °FPassing clouds.10 mph90%29.95 "Hg10 mi
3:56 am80 °FPassing clouds.8 mph90%29.93 "Hg10 mi
2:56 am80 °FOvercast.12 mph87%29.92 "Hg10 mi
2:26 am79 °FOvercast.8 mph90%29.93 "Hg10 mi
2:07 am79 °FLow clouds.12 mph90%29.94 "Hg10 mi
1:56 am79 °FOvercast.9 mph90%29.92 "Hg10 mi
12:56 am79 °FPassing clouds.9 mph90%29.93 "Hg10 mi
11:56 pm
Mon, Jul 15
79 °FClear.9 mph88%29.93 "Hg10 mi
10:56 pm80 °FClear.12 mph87%29.92 "Hg10 mi
9:56 pm81 °FPassing clouds.12 mph88%29.90 "Hg10 mi
8:56 pm83 °FPassing clouds.8 mph79%29.88 "Hg10 mi
7:56 pm86 °FPartly sunny.6 mph70%29.88 "Hg10 mi
Weather by CustomWeather, © 2019

See weather overview

LIVE PARTIAL LUNAR ECLIPSE – Watch the eclipse as it happens